station,date_time,water_elev
365239089153701,05/03/2011 04:25,312.73
365239089153701,05/03/2011 04:26,312.74
365239089153701,05/03/2011 04:27,312.79
365239089153701,05/03/2011 04:28,312.79
365239089153701,05/03/2011 04:29,312.98
365239089153701,05/03/2011 04:30,313.02
365239089153701,05/03/2011 04:31,313.02
365239089153701,05/03/2011 04:32,313.04
365239089153701,05/03/2011 04:33,313.1
365239089153701,05/03/2011 04:34,313.08
365239089153701,05/03/2011 04:35,313.05
365239089153701,05/03/2011 04:36,313.13
365239089153701,05/03/2011 04:37,313.1
365239089153701,05/03/2011 04:38,313.22
365239089153701,05/03/2011 04:39,313.2
365239089153701,05/03/2011 04:40,313.3
365239089153701,05/03/2011 04:41,313.1
365239089153701,05/03/2011 04:42,313.25
365239089153701,05/03/2011 04:43,313.28
365239089153701,05/03/2011 04:44,313.23
365239089153701,05/03/2011 04:45,313.34
365239089153701,05/03/2011 04:46,313.32
365239089153701,05/03/2011 04:47,313.33
365239089153701,05/03/2011 04:48,313.46
365239089153701,05/03/2011 04:49,313.44
365239089153701,05/03/2011 04:50,313.33
365239089153701,05/03/2011 04:51,313.49
365239089153701,05/03/2011 04:52,313.41
365239089153701,05/03/2011 04:53,313.46
365239089153701,05/03/2011 04:54,313.47
365239089153701,05/03/2011 04:55,313.45
365239089153701,05/03/2011 04:56,313.49
365239089153701,05/03/2011 04:57,313.55
365239089153701,05/03/2011 04:58,313.55
365239089153701,05/03/2011 04:59,313.55
365239089153701,05/03/2011 05:00,313.53
365239089153701,05/03/2011 05:01,313.62
365239089153701,05/03/2011 05:02,313.57
365239089153701,05/03/2011 05:03,313.62
365239089153701,05/03/2011 05:04,313.62
365239089153701,05/03/2011 05:05,313.58
365239089153701,05/03/2011 05:06,313.5
365239089153701,05/03/2011 05:07,313.66
365239089153701,05/03/2011 05:08,313.63
365239089153701,05/03/2011 05:09,313.66
365239089153701,05/03/2011 05:10,313.66
365239089153701,05/03/2011 05:11,313.64
365239089153701,05/03/2011 05:12,313.69
365239089153701,05/03/2011 05:13,313.77
365239089153701,05/03/2011 05:14,313.73
365239089153701,05/03/2011 05:15,313.76
365239089153701,05/03/2011 05:16,313.79
365239089153701,05/03/2011 05:17,313.74
365239089153701,05/03/2011 05:18,313.8
365239089153701,05/03/2011 05:19,313.69
365239089153701,05/03/2011 05:20,313.8
365239089153701,05/03/2011 05:21,313.76
365239089153701,05/03/2011 05:22,313.82
365239089153701,05/03/2011 05:23,313.9
365239089153701,05/03/2011 05:24,313.76
365239089153701,05/03/2011 05:25,313.8
365239089153701,05/03/2011 05:26,313.79
365239089153701,05/03/2011 05:27,313.79
365239089153701,05/03/2011 05:28,313.86
365239089153701,05/03/2011 05:29,313.79
365239089153701,05/03/2011 05:30,313.79
365239089153701,05/03/2011 05:31,313.82
365239089153701,05/03/2011 05:32,313.85
365239089153701,05/03/2011 05:33,313.89
365239089153701,05/03/2011 05:34,313.88
365239089153701,05/03/2011 05:35,313.94
365239089153701,05/03/2011 05:36,313.95
365239089153701,05/03/2011 05:37,313.9
365239089153701,05/03/2011 05:38,314.02
365239089153701,05/03/2011 05:39,313.98
365239089153701,05/03/2011 05:40,314.04
365239089153701,05/03/2011 05:41,314.01
365239089153701,05/03/2011 05:42,314.04
365239089153701,05/03/2011 05:43,314.06
365239089153701,05/03/2011 05:44,314.07
365239089153701,05/03/2011 05:45,314.05
365239089153701,05/03/2011 05:46,314.04
365239089153701,05/03/2011 05:47,314.04
365239089153701,05/03/2011 05:48,314.11
365239089153701,05/03/2011 05:49,314.12
365239089153701,05/03/2011 05:50,314.1
365239089153701,05/03/2011 05:51,314.11
365239089153701,05/03/2011 05:52,314.11
365239089153701,05/03/2011 05:53,314.14
365239089153701,05/03/2011 05:54,314.12
365239089153701,05/03/2011 05:55,314.11
365239089153701,05/03/2011 05:56,314.13
365239089153701,05/03/2011 05:57,314.13
365239089153701,05/03/2011 05:58,314.13
365239089153701,05/03/2011 05:59,314.13
365239089153701,05/03/2011 06:00,314.18
365239089153701,05/03/2011 06:01,314.17
365239089153701,05/03/2011 06:02,314.17
365239089153701,05/03/2011 06:03,314.23
365239089153701,05/03/2011 06:04,314.26
365239089153701,05/03/2011 06:05,314.27
365239089153701,05/03/2011 06:06,314.27
365239089153701,05/03/2011 06:07,314.28
365239089153701,05/03/2011 06:08,314.29
365239089153701,05/03/2011 06:09,314.31
365239089153701,05/03/2011 06:10,314.27
365239089153701,05/03/2011 06:11,314.35
365239089153701,05/03/2011 06:12,314.32
365239089153701,05/03/2011 06:13,314.31
365239089153701,05/03/2011 06:14,314.29
365239089153701,05/03/2011 06:15,314.27
365239089153701,05/03/2011 06:16,314.31
365239089153701,05/03/2011 06:17,314.33
365239089153701,05/03/2011 06:18,314.33
365239089153701,05/03/2011 06:19,314.37
365239089153701,05/03/2011 06:20,314.37
365239089153701,05/03/2011 06:21,314.39
365239089153701,05/03/2011 06:22,314.42
365239089153701,05/03/2011 06:23,314.38
365239089153701,05/03/2011 06:24,314.34
365239089153701,05/03/2011 06:25,314.37
365239089153701,05/03/2011 06:26,314.41
365239089153701,05/03/2011 06:27,314.43
365239089153701,05/03/2011 06:28,314.4
365239089153701,05/03/2011 06:29,314.42
365239089153701,05/03/2011 06:30,314.41
365239089153701,05/03/2011 06:31,314.41
365239089153701,05/03/2011 06:32,314.43
365239089153701,05/03/2011 06:33,314.48
365239089153701,05/03/2011 06:34,314.44
365239089153701,05/03/2011 06:35,314.44
365239089153701,05/03/2011 06:36,314.46
365239089153701,05/03/2011 06:37,314.44
365239089153701,05/03/2011 06:38,314.44
365239089153701,05/03/2011 06:39,314.44
365239089153701,05/03/2011 06:40,314.44
365239089153701,05/03/2011 06:41,314.41
365239089153701,05/03/2011 06:42,314.43
365239089153701,05/03/2011 06:43,314.47
365239089153701,05/03/2011 06:44,314.44
365239089153701,05/03/2011 06:45,314.49
365239089153701,05/03/2011 06:46,314.5
365239089153701,05/03/2011 06:47,314.46
365239089153701,05/03/2011 06:48,314.5
365239089153701,05/03/2011 06:49,314.5
365239089153701,05/03/2011 06:50,314.52
365239089153701,05/03/2011 06:51,314.52
365239089153701,05/03/2011 06:52,314.51
365239089153701,05/03/2011 06:53,314.53
365239089153701,05/03/2011 06:54,314.48
365239089153701,05/03/2011 06:55,314.5
365239089153701,05/03/2011 06:56,314.5
365239089153701,05/03/2011 06:57,314.5
365239089153701,05/03/2011 06:58,314.5
365239089153701,05/03/2011 06:59,314.52
365239089153701,05/03/2011 07:00,314.53
365239089153701,05/03/2011 07:01,314.51
365239089153701,05/03/2011 07:02,314.52
365239089153701,05/03/2011 07:03,314.53
365239089153701,05/03/2011 07:04,314.48
365239089153701,05/03/2011 07:05,314.52
365239089153701,05/03/2011 07:06,314.53
365239089153701,05/03/2011 07:07,314.56
365239089153701,05/03/2011 07:08,314.53
365239089153701,05/03/2011 07:09,314.56
365239089153701,05/03/2011 07:10,314.56
365239089153701,05/03/2011 07:11,314.54
365239089153701,05/03/2011 07:12,314.52
365239089153701,05/03/2011 07:13,314.53
365239089153701,05/03/2011 07:14,314.52
365239089153701,05/03/2011 07:15,314.56
365239089153701,05/03/2011 07:16,314.53
365239089153701,05/03/2011 07:17,314.54
365239089153701,05/03/2011 07:18,314.55
365239089153701,05/03/2011 07:19,314.56
365239089153701,05/03/2011 07:20,314.54
365239089153701,05/03/2011 07:21,314.58
365239089153701,05/03/2011 07:22,314.59
365239089153701,05/03/2011 07:23,314.58
365239089153701,05/03/2011 07:24,314.59
365239089153701,05/03/2011 07:25,314.59
365239089153701,05/03/2011 07:26,314.62
365239089153701,05/03/2011 07:27,314.59
365239089153701,05/03/2011 07:28,314.57
365239089153701,05/03/2011 07:29,314.59
365239089153701,05/03/2011 07:30,314.58
365239089153701,05/03/2011 07:31,314.55
365239089153701,05/03/2011 07:32,314.55
365239089153701,05/03/2011 07:33,314.54
365239089153701,05/03/2011 07:34,314.54
365239089153701,05/03/2011 07:35,314.58
365239089153701,05/03/2011 07:36,314.56
365239089153701,05/03/2011 07:37,314.56
365239089153701,05/03/2011 07:38,314.57
365239089153701,05/03/2011 07:39,314.56
365239089153701,05/03/2011 07:40,314.55
365239089153701,05/03/2011 07:41,314.58
365239089153701,05/03/2011 07:42,314.56
365239089153701,05/03/2011 07:43,314.54
365239089153701,05/03/2011 07:44,314.59
365239089153701,05/03/2011 07:45,314.54
365239089153701,05/03/2011 07:46,314.56
365239089153701,05/03/2011 07:47,314.57
365239089153701,05/03/2011 07:48,314.6
365239089153701,05/03/2011 07:49,314.55
365239089153701,05/03/2011 07:50,314.55
365239089153701,05/03/2011 07:51,314.56
365239089153701,05/03/2011 07:52,314.58
365239089153701,05/03/2011 07:53,314.6
365239089153701,05/03/2011 07:54,314.56
365239089153701,05/03/2011 07:55,314.59
365239089153701,05/03/2011 07:56,314.57
365239089153701,05/03/2011 07:57,314.61
365239089153701,05/03/2011 07:58,314.59
365239089153701,05/03/2011 07:59,314.59
365239089153701,05/03/2011 08:00,314.57
365239089153701,05/03/2011 08:01,314.6
365239089153701,05/03/2011 08:02,314.59
365239089153701,05/03/2011 08:03,314.6
365239089153701,05/03/2011 08:04,314.57
365239089153701,05/03/2011 08:05,314.58
365239089153701,05/03/2011 08:06,314.56
365239089153701,05/03/2011 08:07,314.58
365239089153701,05/03/2011 08:08,314.58
365239089153701,05/03/2011 08:09,314.61
365239089153701,05/03/2011 08:10,314.56
365239089153701,05/03/2011 08:11,314.57
365239089153701,05/03/2011 08:12,314.61
365239089153701,05/03/2011 08:13,314.56
365239089153701,05/03/2011 08:14,314.57
365239089153701,05/03/2011 08:15,314.56
365239089153701,05/03/2011 08:16,314.6
365239089153701,05/03/2011 08:17,314.59
365239089153701,05/03/2011 08:18,314.59
365239089153701,05/03/2011 08:19,314.57
365239089153701,05/03/2011 08:20,314.6
365239089153701,05/03/2011 08:21,314.6
365239089153701,05/03/2011 08:22,314.58
365239089153701,05/03/2011 08:23,314.61
365239089153701,05/03/2011 08:24,314.61
365239089153701,05/03/2011 08:25,314.62
365239089153701,05/03/2011 08:26,314.6
365239089153701,05/03/2011 08:27,314.59
365239089153701,05/03/2011 08:28,314.61
365239089153701,05/03/2011 08:29,314.58
365239089153701,05/03/2011 08:30,314.59
365239089153701,05/03/2011 08:31,314.59
365239089153701,05/03/2011 08:32,314.59
365239089153701,05/03/2011 08:33,314.61
365239089153701,05/03/2011 08:34,314.56
365239089153701,05/03/2011 08:35,314.57
365239089153701,05/03/2011 08:36,314.59
365239089153701,05/03/2011 08:37,314.57
365239089153701,05/03/2011 08:38,314.59
365239089153701,05/03/2011 08:39,314.6
365239089153701,05/03/2011 08:40,314.59
365239089153701,05/03/2011 08:41,314.58
365239089153701,05/03/2011 08:42,314.6
365239089153701,05/03/2011 08:43,314.62
365239089153701,05/03/2011 08:44,314.6
365239089153701,05/03/2011 08:45,314.61
365239089153701,05/03/2011 08:46,314.64
365239089153701,05/03/2011 08:47,314.6
365239089153701,05/03/2011 08:48,314.61
365239089153701,05/03/2011 08:49,314.58
365239089153701,05/03/2011 08:50,314.58
365239089153701,05/03/2011 08:51,314.6
365239089153701,05/03/2011 08:52,314.61
365239089153701,05/03/2011 08:53,314.58
365239089153701,05/03/2011 08:54,314.57
365239089153701,05/03/2011 08:55,314.59
365239089153701,05/03/2011 08:56,314.58
365239089153701,05/03/2011 08:57,314.56
365239089153701,05/03/2011 08:58,314.59
365239089153701,05/03/2011 08:59,314.6
365239089153701,05/03/2011 09:00,314.6
365239089153701,05/03/2011 09:01,314.59
365239089153701,05/03/2011 09:02,314.57
365239089153701,05/03/2011 09:03,314.62
365239089153701,05/03/2011 09:04,314.56
365239089153701,05/03/2011 09:05,314.53
365239089153701,05/03/2011 09:06,314.58
365239089153701,05/03/2011 09:07,314.59
365239089153701,05/03/2011 09:08,314.54
365239089153701,05/03/2011 09:09,314.59
365239089153701,05/03/2011 09:10,314.58
365239089153701,05/03/2011 09:11,314.56
365239089153701,05/03/2011 09:12,314.54
365239089153701,05/03/2011 09:13,314.6
365239089153701,05/03/2011 09:14,314.59
365239089153701,05/03/2011 09:15,314.54
365239089153701,05/03/2011 09:16,314.56
365239089153701,05/03/2011 09:17,314.57
365239089153701,05/03/2011 09:18,314.57
365239089153701,05/03/2011 09:19,314.53
365239089153701,05/03/2011 09:20,314.57
365239089153701,05/03/2011 09:21,314.54
365239089153701,05/03/2011 09:22,314.57
365239089153701,05/03/2011 09:23,314.58
365239089153701,05/03/2011 09:24,314.59
365239089153701,05/03/2011 09:25,314.56
365239089153701,05/03/2011 09:26,314.58
365239089153701,05/03/2011 09:27,314.59
365239089153701,05/03/2011 09:28,314.59
365239089153701,05/03/2011 09:29,314.59
365239089153701,05/03/2011 09:30,314.56
365239089153701,05/03/2011 09:31,314.58
365239089153701,05/03/2011 09:32,314.61
365239089153701,05/03/2011 09:33,314.55
365239089153701,05/03/2011 09:34,314.6
365239089153701,05/03/2011 09:35,314.57
365239089153701,05/03/2011 09:36,314.6
365239089153701,05/03/2011 09:37,314.58
365239089153701,05/03/2011 09:38,314.59
365239089153701,05/03/2011 09:39,314.58
365239089153701,05/03/2011 09:40,314.6
365239089153701,05/03/2011 09:41,314.6
365239089153701,05/03/2011 09:42,314.62
365239089153701,05/03/2011 09:43,314.62
365239089153701,05/03/2011 09:44,314.63
365239089153701,05/03/2011 09:45,314.6
365239089153701,05/03/2011 09:46,314.56
365239089153701,05/03/2011 09:47,314.56
365239089153701,05/03/2011 09:48,314.56
365239089153701,05/03/2011 09:49,314.61
365239089153701,05/03/2011 09:50,314.57
365239089153701,05/03/2011 09:51,314.56
365239089153701,05/03/2011 09:52,314.57
365239089153701,05/03/2011 09:53,314.62
365239089153701,05/03/2011 09:54,314.55
365239089153701,05/03/2011 09:55,314.59
365239089153701,05/03/2011 09:56,314.58
365239089153701,05/03/2011 09:57,314.61
365239089153701,05/03/2011 09:58,314.58
365239089153701,05/03/2011 09:59,314.58
365239089153701,05/03/2011 10:00,314.58
365239089153701,05/03/2011 10:01,314.58
365239089153701,05/03/2011 10:02,314.6
365239089153701,05/03/2011 10:03,314.57
365239089153701,05/03/2011 10:04,314.61
365239089153701,05/03/2011 10:05,314.61
365239089153701,05/03/2011 10:06,314.57
365239089153701,05/03/2011 10:07,314.64
365239089153701,05/03/2011 10:08,314.59
365239089153701,05/03/2011 10:09,314.56
365239089153701,05/03/2011 10:10,314.6
365239089153701,05/03/2011 10:11,314.6
365239089153701,05/03/2011 10:12,314.57
365239089153701,05/03/2011 10:13,314.58
365239089153701,05/03/2011 10:14,314.6
365239089153701,05/03/2011 10:15,314.58
365239089153701,05/03/2011 10:16,314.58
365239089153701,05/03/2011 10:17,314.58
365239089153701,05/03/2011 10:18,314.58
365239089153701,05/03/2011 10:19,314.56
365239089153701,05/03/2011 10:20,314.6
365239089153701,05/03/2011 10:21,314.57
365239089153701,05/03/2011 10:22,314.56
365239089153701,05/03/2011 10:23,314.58
365239089153701,05/03/2011 10:24,314.58
365239089153701,05/03/2011 10:25,314.59
365239089153701,05/03/2011 10:26,314.62
365239089153701,05/03/2011 10:27,314.58
365239089153701,05/03/2011 10:28,314.58
365239089153701,05/03/2011 10:29,314.57
365239089153701,05/03/2011 10:30,314.59
365239089153701,05/03/2011 10:31,314.58
365239089153701,05/03/2011 10:32,314.58
365239089153701,05/03/2011 10:33,314.6
365239089153701,05/03/2011 10:34,314.58
365239089153701,05/03/2011 10:35,314.55
365239089153701,05/03/2011 10:36,314.56
365239089153701,05/03/2011 10:37,314.56
365239089153701,05/03/2011 10:38,314.55
365239089153701,05/03/2011 10:39,314.54
365239089153701,05/03/2011 10:40,314.57
365239089153701,05/03/2011 10:41,314.56
365239089153701,05/03/2011 10:42,314.57
365239089153701,05/03/2011 10:43,314.6
365239089153701,05/03/2011 10:44,314.54
365239089153701,05/03/2011 10:45,314.57
365239089153701,05/03/2011 10:46,314.58
365239089153701,05/03/2011 10:47,314.57
365239089153701,05/03/2011 10:48,314.57
365239089153701,05/03/2011 10:49,314.6
365239089153701,05/03/2011 10:50,314.58
365239089153701,05/03/2011 10:51,314.55
365239089153701,05/03/2011 10:52,314.59
365239089153701,05/03/2011 10:53,314.57
365239089153701,05/03/2011 10:54,314.57
365239089153701,05/03/2011 10:55,314.57
365239089153701,05/03/2011 10:56,314.58
365239089153701,05/03/2011 10:57,314.58
365239089153701,05/03/2011 10:58,314.53
365239089153701,05/03/2011 10:59,314.55
365239089153701,05/03/2011 11:00,314.58
365239089153701,05/03/2011 11:01,314.59
365239089153701,05/03/2011 11:02,314.56
365239089153701,05/03/2011 11:03,314.56
365239089153701,05/03/2011 11:04,314.58
365239089153701,05/03/2011 11:05,314.59
365239089153701,05/03/2011 11:06,314.57
365239089153701,05/03/2011 11:07,314.59
365239089153701,05/03/2011 11:08,314.56
365239089153701,05/03/2011 11:09,314.55
365239089153701,05/03/2011 11:10,314.57
365239089153701,05/03/2011 11:11,314.58
365239089153701,05/03/2011 11:12,314.57
365239089153701,05/03/2011 11:13,314.57
365239089153701,05/03/2011 11:14,314.56
365239089153701,05/03/2011 11:15,314.6
365239089153701,05/03/2011 11:16,314.55
365239089153701,05/03/2011 11:17,314.55
365239089153701,05/03/2011 11:18,314.57
365239089153701,05/03/2011 11:19,314.55
365239089153701,05/03/2011 11:20,314.55
365239089153701,05/03/2011 11:21,314.58
365239089153701,05/03/2011 11:22,314.55
365239089153701,05/03/2011 11:23,314.57
365239089153701,05/03/2011 11:24,314.58
365239089153701,05/03/2011 11:25,314.56
365239089153701,05/03/2011 11:26,314.56
365239089153701,05/03/2011 11:27,314.55
365239089153701,05/03/2011 11:28,314.59
365239089153701,05/03/2011 11:29,314.57
365239089153701,05/03/2011 11:30,314.55
365239089153701,05/03/2011 11:31,314.55
365239089153701,05/03/2011 11:32,314.55
365239089153701,05/03/2011 11:33,314.58
365239089153701,05/03/2011 11:34,314.56
365239089153701,05/03/2011 11:35,314.58
365239089153701,05/03/2011 11:36,314.58
365239089153701,05/03/2011 11:37,314.55
365239089153701,05/03/2011 11:38,314.54
365239089153701,05/03/2011 11:39,314.52
365239089153701,05/03/2011 11:40,314.55
365239089153701,05/03/2011 11:41,314.57
365239089153701,05/03/2011 11:42,314.54
365239089153701,05/03/2011 11:43,314.55
365239089153701,05/03/2011 11:44,314.55
365239089153701,05/03/2011 11:45,314.58
365239089153701,05/03/2011 11:46,314.49
365239089153701,05/03/2011 11:47,314.55
365239089153701,05/03/2011 11:48,314.54
365239089153701,05/03/2011 11:49,314.57
365239089153701,05/03/2011 11:50,314.57
365239089153701,05/03/2011 11:51,314.58
365239089153701,05/03/2011 11:52,314.56
365239089153701,05/03/2011 11:53,314.56
365239089153701,05/03/2011 11:54,314.54
365239089153701,05/03/2011 11:55,314.56
365239089153701,05/03/2011 11:56,314.58
365239089153701,05/03/2011 11:57,314.56
365239089153701,05/03/2011 11:58,314.59
365239089153701,05/03/2011 11:59,314.53
365239089153701,05/03/2011 12:00,314.56
365239089153701,05/03/2011 12:01,314.54
365239089153701,05/03/2011 12:02,314.5
365239089153701,05/03/2011 12:03,314.51
365239089153701,05/03/2011 12:04,314.54
365239089153701,05/03/2011 12:05,314.52
365239089153701,05/03/2011 12:06,314.52
365239089153701,05/03/2011 12:07,314.56
365239089153701,05/03/2011 12:08,314.54
365239089153701,05/03/2011 12:09,314.54
365239089153701,05/03/2011 12:10,314.54
365239089153701,05/03/2011 12:11,314.54
365239089153701,05/03/2011 12:12,314.55
365239089153701,05/03/2011 12:13,314.55
365239089153701,05/03/2011 12:14,314.55
365239089153701,05/03/2011 12:15,314.57
365239089153701,05/03/2011 12:16,314.53
365239089153701,05/03/2011 12:17,314.54
365239089153701,05/03/2011 12:18,314.52
365239089153701,05/03/2011 12:19,314.57
365239089153701,05/03/2011 12:20,314.54
365239089153701,05/03/2011 12:21,314.56
365239089153701,05/03/2011 12:22,314.54
365239089153701,05/03/2011 12:23,314.54
365239089153701,05/03/2011 12:24,314.55
365239089153701,05/03/2011 12:25,314.54
365239089153701,05/03/2011 12:26,314.55
365239089153701,05/03/2011 12:27,314.49
365239089153701,05/03/2011 12:28,314.58
365239089153701,05/03/2011 12:29,314.55
365239089153701,05/03/2011 12:30,314.54
365239089153701,05/03/2011 12:31,314.5
365239089153701,05/03/2011 12:32,314.56
365239089153701,05/03/2011 12:33,314.53
365239089153701,05/03/2011 12:34,314.53
365239089153701,05/03/2011 12:35,314.53
365239089153701,05/03/2011 12:36,314.52
365239089153701,05/03/2011 12:37,314.53
365239089153701,05/03/2011 12:38,314.55
365239089153701,05/03/2011 12:39,314.5
365239089153701,05/03/2011 12:40,314.56
365239089153701,05/03/2011 12:41,314.52
365239089153701,05/03/2011 12:42,314.51
365239089153701,05/03/2011 12:43,314.55
365239089153701,05/03/2011 12:44,314.55
365239089153701,05/03/2011 12:45,314.51
365239089153701,05/03/2011 12:46,314.54
365239089153701,05/03/2011 12:47,314.52
365239089153701,05/03/2011 12:48,314.51
365239089153701,05/03/2011 12:49,314.53
365239089153701,05/03/2011 12:50,314.55
365239089153701,05/03/2011 12:51,314.54
365239089153701,05/03/2011 12:52,314.47
365239089153701,05/03/2011 12:53,314.54
365239089153701,05/03/2011 12:54,314.54
365239089153701,05/03/2011 12:55,314.5
365239089153701,05/03/2011 12:56,314.53
365239089153701,05/03/2011 12:57,314.54
365239089153701,05/03/2011 12:58,314.55
365239089153701,05/03/2011 12:59,314.52
365239089153701,05/03/2011 13:00,314.52
365239089153701,05/03/2011 13:01,314.51
365239089153701,05/03/2011 13:02,314.53
365239089153701,05/03/2011 13:03,314.51
365239089153701,05/03/2011 13:04,314.54
365239089153701,05/03/2011 13:05,314.53
365239089153701,05/03/2011 13:06,314.54
365239089153701,05/03/2011 13:07,314.5
365239089153701,05/03/2011 13:08,314.5
365239089153701,05/03/2011 13:09,314.52
365239089153701,05/03/2011 13:10,314.49
365239089153701,05/03/2011 13:11,314.52
365239089153701,05/03/2011 13:12,314.55
365239089153701,05/03/2011 13:13,314.52
365239089153701,05/03/2011 13:14,314.54
365239089153701,05/03/2011 13:15,314.53
365239089153701,05/03/2011 13:16,314.54
365239089153701,05/03/2011 13:17,314.49
365239089153701,05/03/2011 13:18,314.52
365239089153701,05/03/2011 13:19,314.53
365239089153701,05/03/2011 13:20,314.52
365239089153701,05/03/2011 13:21,314.52
365239089153701,05/03/2011 13:22,314.54
365239089153701,05/03/2011 13:23,314.54
365239089153701,05/03/2011 13:24,314.53
365239089153701,05/03/2011 13:25,314.55
365239089153701,05/03/2011 13:26,314.53
365239089153701,05/03/2011 13:27,314.5
365239089153701,05/03/2011 13:28,314.53
365239089153701,05/03/2011 13:29,314.53
365239089153701,05/03/2011 13:30,314.52
365239089153701,05/03/2011 13:31,314.53
365239089153701,05/03/2011 13:32,314.54
365239089153701,05/03/2011 13:33,314.48
365239089153701,05/03/2011 13:34,314.49
365239089153701,05/03/2011 13:35,314.53
365239089153701,05/03/2011 13:36,314.54
365239089153701,05/03/2011 13:37,314.53
365239089153701,05/03/2011 13:38,314.5
365239089153701,05/03/2011 13:39,314.53
365239089153701,05/03/2011 13:40,314.5
365239089153701,05/03/2011 13:41,314.53
365239089153701,05/03/2011 13:42,314.53
365239089153701,05/03/2011 13:43,314.53
365239089153701,05/03/2011 13:44,314.52
365239089153701,05/03/2011 13:45,314.51
365239089153701,05/03/2011 13:46,314.51
365239089153701,05/03/2011 13:47,314.54
365239089153701,05/03/2011 13:48,314.5
365239089153701,05/03/2011 13:49,314.5
365239089153701,05/03/2011 13:50,314.51
365239089153701,05/03/2011 13:51,314.51
365239089153701,05/03/2011 13:52,314.5
365239089153701,05/03/2011 13:53,314.55
365239089153701,05/03/2011 13:54,314.49
365239089153701,05/03/2011 13:55,314.52
365239089153701,05/03/2011 13:56,314.53
365239089153701,05/03/2011 13:57,314.52
365239089153701,05/03/2011 13:58,314.51
365239089153701,05/03/2011 13:59,314.52
365239089153701,05/03/2011 14:00,314.53
365239089153701,05/03/2011 14:01,314.53
365239089153701,05/03/2011 14:02,314.48
365239089153701,05/03/2011 14:03,314.51
365239089153701,05/03/2011 14:04,314.5
365239089153701,05/03/2011 14:05,314.52
365239089153701,05/03/2011 14:06,314.5
365239089153701,05/03/2011 14:07,314.51
365239089153701,05/03/2011 14:08,314.5
365239089153701,05/03/2011 14:09,314.46
365239089153701,05/03/2011 14:10,314.51